Tracking 35280 objects as of 7-Sep-2026
HD Live streaming from Space Station
objects crossing your sky now

DELTA 1 R/B


DELTA 1 R/B is no longer on orbit


NORAD ID: 14159
Int'l Code: 1983-065B
Launch date: June 28, 1983
Source: United States (US)
Launch site: AIR FORCE EASTERN TEST RANGE (AFETR)
Decay date: 1983-08-11

Note: This is a ROCKET BODY
Your satellite tracking list
Your tracking list is empty




NASA's NSSDC Master Catalog

Two Line Element Set (TLE):
1 14159U 83065  B 83223.27605194  .36619195 -56283-4 +62354-3 0  9996
2 14159 026.4933 103.2007 0011875 301.5410 058.7595 16.47233800006939
Source of the keplerian elements: AFSPC